Regional Weather Roundup
Issued by NWS

Home | Current Version | Previous Version | Text Only | Print | Product List | Glossary Off
Versions: 1 2 3 4 5 6 7 8 9 10 11 12 13 14 15 16 17 18 19 20 21 22 23 24 25 26 27 28 29 30 31 32 33 34 35 36 37 38 39 40 41 42 43 44 45 46 47 48 49 50

000
ASUS43 KMPX 241401
RWRMN
WEATHER ROUNDUP FOR MINNESOTA
NATIONAL WEATHER SERVICE TWIN CITIES/CHANHASSEN MN
800 AM CST FRI FEB 24 2017


NOTE: "FAIR" INDICATES FEW OR NO CLOUDS BELOW 12,000 FEET WITH NO
SIGNIFICANT WEATHER AND/OR OBSTRUCTIONS TO VISIBILITY. N/A MEANS
CURRENT SKY AND/OR WEATHER CONDITIONS ARE NOT AVAILABLE.

MNZ060>063-068>070-241500-
   Twin Cities Metro

CITY           SKY/WX    TMP DP  RH WIND       PRES   REMARKS
TWIN CITIES    CLOUDY    25  15  66 N21       29.83R WCI  11
ST PAUL        CLOUDY    26  17  68 N16G23    29.84R WCI  14
CRYSTAL        CLOUDY    24  13  62 N21G26    29.84S WCI   9
BLAINE         CLOUDY    27  18  69 N14G22    29.85R WCI  15
LAKEVILLE      LGT SNOW  23  19  86 N13G20    29.81R WCI  11
EDEN PRAIRIE   CLOUDY    25  15  66 N16G24    29.82R WCI  12
SOUTH ST PAUL  CLOUDY    27  17  67 N16G22    29.82S WCI  15
LAKE ELMO      CLOUDY    27  19  74 N12G20    29.82S WCI  16
$$
MNZ001>005-007-008-013>017-022>024-027-028-241500-
   Northwest Minnesota

CITY           SKY/WX    TMP DP  RH WIND       PRES   REMARKS
BEMIDJI        PTCLDY     7   4  87 N5        30.04R WCI  -2
HALLOCK        CLOUDY    12   9  85 N8        30.16R WCI   1
ROSEAU         CLOUDY     3   0  85 N5        30.13R WCI  -6
WARROAD        CLOUDY     3   0  85 NW3       30.12R
THIEF RVR FALL CLOUDY    11   5  77 N9        30.12R WCI  -2
CROOKSTON      CLOUDY    16   7  67 N9        30.15R WCI   4
FOSSTON        CLOUDY     9   5  85 N10       30.08S WCI  -6
DETROIT LAKES  PTCLDY    14   9  79 N6        30.05R WCI   5
MOORHEAD       CLOUDY    18  10  73 N16       30.11R WCI   3
PARK RAPIDS    PTCLDY    11   3  70 N9        30.00S WCI  -2
MAHNOMEN       FAIR      13   7  75 N12       30.06S WCI  -1
$$
MNZ006-009>011-018-025>026-241500-
   North Central Minnesota

CITY           SKY/WX    TMP DP  RH WIND       PRES   REMARKS
BAUDETTE       CLOUDY     2  -2  83 NW5       30.08S WCI  -8
FLAG ISLAND    CLEAR      3   0  85 NW7       30.11S WCI  -9
INTL FALLS     CLOUDY     9   2  73 N7        30.05S WCI  -2
WASKISH        CLOUDY     7   3  85 N3        30.07R
BIG FORK       CLOUDY     9   3  78 N5        30.02S WCI   0
LONGVILLE      CLOUDY    10   7  85 CALM      30.00R
GRAND RAPIDS   PTCLDY    12   7  80 N12       30.00R WCI  -2
CRANE LAKE     CLOUDY     9   3  78 N5        30.05S WCI   0
ORR            CLOUDY    10   1  67 CALM      29.99R
COOK           PTCLDY    10   3  72 N5        30.00S WCI   2
WALKER         FAIR      10   5  80 N6        30.02R WCI   0
$$
MNZ012-019>021-037-241500-
   Northeast Minnesota

CITY           SKY/WX    TMP DP  RH WIND       PRES   REMARKS
DULUTH         CLOUDY    16  10  77 N12       29.92S WCI   3
ELY            CLOUDY    10   1  67 NE7       29.97S WCI   0
HIBBING        CLOUDY    12   5  73 N12       29.97S WCI  -2
EVELETH        PTCLDY    14   2  59 N6        29.98S WCI   5
DULUTH HARBOR  CLOUDY    21  16  79 N21       29.97S WCI   6
TWO HARBORS    MOCLDY    19  10  68 N8        29.93F WCI   9
SILVER BAY     CLOUDY    16   7  67 N6        29.94F WCI   7
GRAND MARAIS     N/A     15   4  61 NE8       30.02F WCI   4
G MARAIS ARPRT CLOUDY     7  -2  66 N10       29.92F WCI  -8
$$
MNZ029>031-032-039>041-046>048-054>057-064-241500-
   West Central Minnesota

CITY           SKY/WX    TMP DP  RH WIND       PRES   REMARKS
FERGUS FALLS   CLOUDY    16   7  67 N14       30.08S WCI   1
WHEATON        MOCLDY    18  10  73 N14G21    30.08R WCI   4
MORRIS         CLOUDY    19  10  68 N16G23    30.00R WCI   5
ALEXANDRIA     CLOUDY    17   9  70 N15       29.97R WCI   2
ELBOW LAKE     FAIR      17   9  72 N14       30.02R WCI   3
WADENA         CLOUDY    12   7  79 N10       29.99S WCI  -1
GLENWOOD       CLOUDY    18  10  73 N17G23    29.96R WCI   2
APPLETON       MOCLDY    21  12  68 N21G26    29.99S WCI   6
BENSON         CLOUDY    21   9  58 NE18G24   29.99R WCI   6
ORTONVILLE     MOCLDY    19  10  68 N18G29    30.01R WCI   4
MADISON        CLOUDY    23  14  68 N22G29    30.00R WCI   8
WILLMAR        FAIR      23  14  68 N18G28    29.94R WCI   9
$$
MNZ033>034-036-042>043-049>051-058-059-241500-
   Central Minnesota

CITY           SKY/WX    TMP DP  RH WIND       PRES   REMARKS
ST CLOUD       CLOUDY    21  11  65 N15G26    29.90S WCI   8
SAUK CENTRE    FAIR      18   9  68 N14G23    29.95S WCI   4
PAYNESVILLE    CLOUDY    20  12  69 N12G20    29.93R WCI   8
AITKIN         MOCLDY    18   9  68 N10       29.95S WCI   6
PINE RIVER     CLOUDY    12   9  85 N10       30.03R WCI  -1
BRAINERD       CLOUDY    15   8  73 N13       29.97S WCI   1
STAPLES        CLOUDY    12   7  79 N12       29.98F WCI  -2
LONG PRAIRIE   FAIR      18  10  73 NW17      29.95S WCI   2
LITTLE FALLS   CLOUDY    19  10  68 N8        29.96R WCI   9
LITCHFIELD     CLOUDY    23  14  68 N17       29.90R WCI   9
BUFFALO        CLOUDY    23  13  65 N14G20    29.89R WCI  11
MAPLE LAKE     CLOUDY    24  15  70 N14G23    29.90R WCI  11
HUTCHINSON     CLOUDY    24  15  69 N16G25    29.88R WCI  11
$$
MNZ037-044-045-052-053-241500-
   East Central Minnesota

CITY           SKY/WX    TMP DP  RH WIND       PRES   REMARKS
PRINCETON      CLOUDY    23  14  68 N15G22    29.89R WCI  10
MORA           CLOUDY    21  12  68 N7        29.92R WCI  13
CAMBRIDGE      CLOUDY    25  14  63 N12G18    29.87R WCI  14
RUSH CITY      CLOUDY    23  16  74 N13G23    29.89R WCI  11
MOOSE LAKE     CLOUDY    19  12  73 N12G18    29.90F WCI   7
HINCKLEY       CLOUDY    23  16  74 N14G20    29.90R WCI  11
CLOQUET        CLOUDY    18  10  73 N8        29.92S WCI   7
MCGREGOR       MOCLDY    18  12  79 N14       29.95S WCI   4
$$
MNZ071>073-080-081-089-090-097-098-241500-
   Southwest Minnesota

CITY           SKY/WX    TMP DP  RH WIND       PRES   REMARKS
MONTEVIDEO     CLOUDY    21  14  73 NE18G30   29.97R WCI   6
GRANITE FALLS  CLOUDY    24  15  70 N18G28    29.96R WCI   9
CANBY          CLOUDY    22  13  70 N18G28    29.98R WCI   7
MARSHALL       CLOUDY    21  14  74 N22       29.93R WCI   5
REDWOOD FALLS  CLOUDY    23  12  62 N16G25    29.91R WCI  10
OLIVIA         CLOUDY    23  14  68 N21G28    29.90R WCI   8
PIPESTONE      CLOUDY    19  12  73 NE24G33   29.87R HAZE    WCI   2
WINDOM         LGT SNOW  21  18  86 N23       29.85R WCI   5
WORTHINGTON    LGT SNOW  20  16  84 N22G29    29.85R FOG     WCI   3
JACKSON        CLOUDY    21  18  86 VRB22G29  29.81R FOG     WCI   5
TRACY          CLOUDY    23  17  77 N20G26    29.91R WCI   8
SLAYTON        CLOUDY    19  16  85 N28       29.87R FOG     WCI   1
$$
MNZ065>067-074>077-082>085-091>093-241500-
   South Central Minnesota

CITY           SKY/WX    TMP DP  RH WIND       PRES   REMARKS
MANKATO        LGT SNOW  24  19  81 N18       29.82R WCI  10
NEW ULM        CLOUDY    23  14  68 N13G28    29.85R WCI  11
ST JAMES       LGT SNOW  21  18  86 N22G28    29.86R WCI   5
FAIRMONT       LGT SNOW  22  19  89 N28       29.79R FOG     WCI   4
GLENCOE        CLOUDY    25  18  76 N10G20    29.86R WCI  15
FARIBAULT      CLOUDY    25  19  80 N12G23    29.79R WCI  14
OWATONNA         N/A     25  21  86 N17G24    29.76R WCI  11
WASECA         CLOUDY    25  21  86 N20       29.79R WCI  11
ALBERT LEA     LGT SNOW  27  25  93 N18G25    29.72R WCI  13
$$
MNZ078>079-086>088-094>096-241500-
   Southeast Minnesota

CITY           SKY/WX    TMP DP  RH WIND       PRES   REMARKS
ROCHESTER      CLOUDY    26  25  96 N25G31    29.69R WCI  11
RED WING       CLOUDY    28  21  74 N9        29.78R WCI  20
STANTON        MIX PCPN  27  22  82 N18G24    29.77R WCI  14
WINONA         LGT SNOW  30  28  93 NE9       29.72R WCI  22
AUSTIN           N/A     27  25  93 N18G24    29.69R WCI  13
PRESTON        CLOUDY    27  25  92 NE17G26   29.66R WCI  14
$$
ABBREVIATIONS USED IN REMARKS
   TC - TEMPERATURES IN CELSIUS
  WCI - WIND CHILL INDEX
   HX - HEAT INDEX
  VSB - VISIBILITY
$$




USA.gov is the U.S. government's official web portal to all federal, state and local government web resources and services.